CAPE
0 0 0 0 0 0 0 0 0 0 0 0 0 0 0 0 0 0 0 0 0 0 0 0 0 0 0 0 327 2178 3158 3411 3092 2610 2383 2306 2257 2244 2232 2165 2202 2234 2394 1883
0 0 0 0 0 0 0 0 0 2 11 0 0 0 0 0 0 0 0 0 0 0 0 0 0 0 0 0 0 136 1489 2994 3039 2276 2077 1767 2035 2090 2284 2429 2311 2182 2387 2034
1 0 1 0 0 0 0 0 0 0 12 17 0 0 0 0 0 0 0 0 0 0 0 0 0 0 0 0 0 0 293 1738 2796 1776 2154 2263 2236 2794 2737 2775 2804 2668 2194 1912
67 22 20 8 6 0 0 0 0 19 49 16 1 0 0 0 0 0 0 0 0 0 0 0 0 0 0 0 0 0 76 1553 2431 2399 1658 2136 1719 1594 2037 2187 2118 2037 1948 1827
1 79 110 67 57 26 0 5 24 19 20 21 11 0 0 0 0 0 0 0 0 0 0 0 0 0 0 0 0 9 50 1064 1342 2192 1706 1947 1392 1257 1783 2034 2129 1839 1899 1866
20 33 49 15 115 81 42 51 43 27 19 22 4 0 0 0 0 0 0 0 0 0 0 0 0 0 0 0 0 0 60 703 1881 2448 2273 1790 1548 1729 1973 1822 1887 1918 1715 1859
70 36 44 51 69 150 76 111 44 39 49 21 0 0 0 0 0 0 0 0 0 0 0 0 0 0 0 0 0 0 333 1358 1907 2449 2121 1822 1941 2189 1789 2112 2060 1642 1493 1473
68 34 152 94 128 153 147 112 76 31 27 3 0 5 0 0 0 0 0 0 0 0 0 0 0 0 0 0 0 0 664 1514 2197 1815 1709 1951 2168 1890 2259 2144 1548 1570 1402 1399
120 58 24 0 133 213 91 138 3 27 77 28 11 5 0 3 0 0 0 0 0 0 0 0 0 0 0 0 0 125 1239 1417 1298 1445 1742 1664 1907 2081 1647 1815 1525 1176 1180 1033
2 5 41 2 4 23 72 75 89 73 9 33 67 3 0 0 0 0 0 0 93 268 1 0 0 0 0 19 524 1252 1262 1325 1423 1445 1275 1256 1246 1087 783 769 550 540 512 493
0 3 99 66 22 73 96 29 45 144 35 51 19 44 2 0 2 0 0 459 667 466 1366 1015 233 347 946 1325 1234 1140 1205 1125 952 882 658 591 370 283 301 266 228 214 158 131
3 2 0 0 11 199 195 77 143 134 41 15 33 93 347 259 173 196 786 851 870 1156 1257 1356 1332 1163 1080 1097 1222 966 750 585 702 595 285 123 53 20 2 0 0 0 0 0
0 12 0 0 42 69 141 76 42 114 146 106 36 103 257 210 200 475 596 559 643 637 773 804 867 948 964 1215 1372 1050 567 443 171 42 5 0 0 0 0 0 0 0 0 0
9 0 0 2 0 8 60 77 99 50 48 62 84 138 320 299 257 273 169 333 939 924 853 847 997 957 1174 970 604 428 247 91 25 2 0 0 0 0 0 0 0 0 0 0
1 0 4 5 1 1 4 13 133 111 228 87 111 67 107 235 225 189 231 543 810 748 630 582 582 478 336 234 143 68 24 1 0 0 0 0 0 0 0 0 0 0 0 0
20 1 4 0 0 0 0 1 114 159 134 89 70 31 0 91 278 213 185 348 408 323 361 209 115 101 57 4 0 0 0 0 0 0 0 0 0 0 0 0 0 0 0 0
15 2 0 0 0 1 0 7 119 116 151 79 19 136 64 285 161 121 190 166 126 49 10 1 0 1 2 1 0 0 0 0 0 0 0 0 0 0 0 0 0 0 0 0
6 5 0 0 23 68 209 116 177 136 67 34 81 96 215 406 184 226 153 27 2 0 0 0 1 1 0 0 0 0 0 0 0 0 0 0 0 0 0 0 0 0 0 0
2 2 0 2 7 51 236 155 130 92 89 71 97 163 275 330 215 39 0 1 0 4 1 0 0 0 0 0 0 0 0 0 0 0 0 0 0 0 0 0 0 0 0 0
4 2 0 0 0 14 3 2 0 228 124 141 142 2 286 238 6 4 3 3 2 4 5 4 4 0 0 0 0 0 0 0 0 0 0 0 0 0 0 0 0 0 0 0
0 1 0 1 0 4 1 0 23 117 154 291 93 27 330 224 86 3 2 0 0 0 0 0 0 0 0 0 0 0 0 0 0 0 0 0 0 0 0 0 0 0 0 1
1 0 0 6 0 0 1 0 68 21 198 481 132 364 460 137 5 5 2 3 0 1 3 2 0 0 0 0 0 0 0 0 0 0 0 0 0 0 0 1 0 0 1 1
0 2 0 0 1 2 3 1 3 1 304 226 256 351 4 3 2 2 2 2 2 1 0 0 0 0 0 0 0 0 0 0 0 0 0 0 0 0 0 0 1 0 1 1
7 4 1 1 0 3 2 3 2 3 1 0 0 1 1 4 6 4 1 2 0 0 0 0 0 0 0 0 0 0 0 0 0 0 0 0 0 1 1 1 1 1 0 0
4 2 0 0 1 2 3 5 5 6 5 3 2 4 5 3 5 3 2 0 0 0 0 0 0 0 0 0 0 0 0 0 0 0 0 0 1 0 1 0 0 1 0 0
8 1 2 2 2 1 2 1 0 1 3 1 0 0 0 1 2 1 0 0 0 0 0 0 0 0 0 0 0 0 0 0 0 0 1 0 0 1 0 1 0 0 0 0
CIN
0 0 0 0 0 0 0 0 0 0 0 0 0 0 0 0 0 0 0 0 0 0 0 0 0 0 0 -1 -112 -5 -3 -11 -19 -40 -61 -46 -46 -33 -22 -13 -5 -5 -12 -42
0 0 0 0 0 0 0 0 0 -7 -8 -1 0 0 0 0 0 0 0 0 0 0 0 0 0 0 0 0 0 -190 -69 -18 -40 -89 -81 -77 -40 -13 -4 -5 -5 -12 -10 -27
-3 0 -3 0 0 0 0 0 0 0 -7 -9 0 0 0 0 0 0 0 0 0 0 0 0 0 0 0 0 0 0 -197 -93 -83 -108 -80 -65 -32 -22 -5 -15 -1 -1 -2 -6
-6 -8 -7 -5 -2 0 0 0 -2 -4 -13 -11 -4 0 0 0 0 0 0 0 0 0 0 0 0 0 0 0 0 0 -281 -124 -89 -65 -94 -90 -141 -124 -67 -41 -25 -8 -6 -3
-2 -7 -3 -6 -5 -6 -2 -7 -6 -4 -8 -11 -11 -2 0 0 0 0 0 0 0 0 0 0 0 0 0 0 0 -463 -331 -147 -109 -98 -66 -115 -125 -105 -30 -20 -3 -7 -1 -1
-6 -16 -19 -41 -18 -10 -8 -8 -7 -8 -8 -7 -8 0 0 0 0 0 0 0 0 0 0 0 0 0 0 0 0 0 -303 -162 -81 -63 -42 -124 -111 -6 -19 -15 -7 -1 -2 -1
-15 -26 -20 -17 -16 -8 -13 -6 -7 -9 -10 -7 0 0 0 0 0 0 0 0 0 0 0 0 0 0 0 0 0 0 -181 -110 -68 -50 -64 -96 -49 -18 -20 -3 0 -2 -2 -2
-9 -5 -4 -10 -18 -5 -6 -8 -6 -2 -6 -7 0 -10 0 0 0 0 0 0 0 0 0 0 0 0 0 0 0 0 -122 -57 -53 -103 -76 -31 -31 -25 -1 -2 -4 -4 -8 -11
-4 -5 -19 0 -20 -9 -19 -12 -9 -10 -9 -18 -10 -18 0 -13 0 0 0 0 0 0 0 0 0 0 0 0 0 -144 -42 -107 -119 -98 -57 -46 -8 -3 -17 -1 -3 -36 -32 -31
-6 -9 -20 -15 -92 -62 -38 -51 -8 -11 -44 -22 -10 -18 0 0 0 0 0 0 -5 -33 -1 0 0 0 0 -48 -38 -15 -79 -97 -74 -47 -57 -57 -47 -42 -90 -60 -92 -87 -86 -78
0 -1 -18 -21 -12 -31 -9 -12 -27 -8 -11 -8 -12 -10 -48 0 -5 0 0 -12 -40 -5 -8 -17 -5 -33 -7 -13 -51 -105 -70 -82 -100 -103 -129 -129 -178 -188 -147 -141 -146 -147 -150 -135
0 0 0 0 -38 -29 -10 -5 -23 -2 -16 -8 -13 -13 -20 -4 -3 -1 -42 -5 -68 -5 -27 -39 -41 -35 -33 -43 -58 -95 -125 -129 -70 -94 -174 -231 -251 -253 -13 -16 0 0 0 0
0 0 0 0 -5 -24 -7 -18 -11 -7 -10 -7 -13 -6 -3 -34 -17 -32 -57 -54 -30 -12 -26 -54 -28 -26 -40 -20 -14 -26 -99 -135 -184 -255 -236 0 0 0 0 0 0 0 0 0
-2 0 0 0 0 -12 -2 -8 -12 -5 -3 -21 -17 -8 -1 -32 -34 -48 -103 -60 0 -1 -4 -5 -7 -5 0 -5 -63 -109 -153 -209 -267 -148 0 0 0 0 0 0 0 0 0 0
0 0 0 0 -1 -2 0 -2 -3 -12 -4 -5 -16 -36 -7 -3 -48 -62 -19 -1 -1 -1 -5 -9 -6 -14 -37 -108 -168 -208 -257 -75 0 0 0 0 0 0 0 0 0 0 0 0
-1 0 0 0 0 0 0 0 -3 -2 -5 -5 -5 -22 0 -46 -24 -50 -28 -6 -13 -22 -10 -33 -78 -110 -163 -237 -2 0 0 0 0 0 0 0 0 0 0 0 0 0 0 0
0 0 0 0 0 0 0 -33 -6 -4 -3 -9 -5 -7 -12 -7 -76 -90 -56 -41 -67 -90 -129 -59 0 0 -1 -1 0 0 0 0 0 0 0 0 0 0 0 0 0 0 0 0
0 0 0 0 -2 -13 -6 -6 -4 -4 -7 -12 -7 -17 -3 -4 -57 -25 -28 -111 -90 0 0 -1 -2 -1 -1 0 0 0 0 0 0 0 0 0 0 0 0 0 0 0 0 0
0 0 0 0 -3 -15 -2 -20 -4 -16 -3 -6 -7 -23 -11 -1 -13 -36 0 0 0 0 -1 0 -2 0 0 0 0 0 0 0 0 0 0 0 0 0 0 0 0 0 0 0
0 0 0 0 0 -2 0 0 0 -15 -6 -7 -37 -38 -14 -10 -91 0 0 0 0 0 0 0 0 0 0 0 0 0 0 0 0 0 0 0 0 0 0 0 0 0 0 0
0 0 0 0 0 0 0 0 -19 -1 -23 -3 -52 -1 -8 -8 -82 0 0 0 0 0 0 0 0 0 0 0 0 0 0 0 0 0 0 0 0 0 0 0 -1 -2 0 -1
0 -1 -1 -1 0 0 0 0 -1 -2 -39 -10 -90 -2 -2 -48 0 0 0 0 0 -17 0 0 0 0 0 0 0 0 0 0 0 0 0 0 0 0 0 -1 0 -1 -1 -1
0 0 0 0 0 0 0 0 0 0 0 -36 -11 -2 -6 0 0 0 0 0 0 0 0 0 0 0 0 0 0 0 0 0 0 0 0 0 0 0 -1 -1 -1 -1 -1 -1
0 0 0 0 0 0 0 0 0 0 0 0 0 0 0 0 0 0 0 0 0 0 0 0 0 0 0 0 0 0 0 0 0 0 0 0 0 -1 -1 -1 -1 -1 -1 -1
0 0 0 0 0 0 0 0 0 0 0 0 0 0 0 0 0 0 0 0 0 0 0 0 0 0 0 0 0 0 0 0 0 0 0 -1 -2 -1 -1 0 0 -1 0 0
0 0 0 0 0 0 0 0 0 0 0 0 0 0 0 0 0 0 0 0 0 0 0 0 0 0 0 0 0 0 0 0 0 0 -1 0 -1 -2 0 0 0 0 0 0
Wind_Speed
21 29 37 36 35 45 47 52 51 45 41 42 45 50 43 38 34 37 38 40 36 39 36 31 29 27 23 23 23 22 20 19 16 16 15 16 16 16 16 15 15 14 13 14
27 34 35 37 38 41 47 53 56 44 36 42 45 48 44 41 37 34 32 33 32 33 33 33 31 28 26 23 23 23 21 20 19 18 17 17 17 17 16 17 17 16 15 15
34 35 30 33 40 44 48 50 52 53 43 37 40 51 48 45 40 38 38 34 34 31 30 28 29 27 27 27 25 24 22 20 19 19 18 18 18 19 17 18 17 17 17 16
38 37 36 42 39 39 51 44 48 48 48 49 39 58 49 45 44 40 38 38 34 33 32 30 28 29 25 24 23 23 23 20 19 20 17 17 17 19 22 22 21 19 16 15
38 36 36 41 41 36 46 39 43 45 50 51 52 53 49 42 44 42 39 35 34 31 32 31 30 27 26 24 23 23 22 21 19 18 18 16 18 17 15 17 15 14 13 13
51 44 45 40 44 37 33 38 40 42 44 56 54 52 54 45 41 39 33 34 31 30 30 28 27 26 23 22 21 21 21 20 19 18 16 16 16 15 14 14 12 13 12 12
40 40 33 30 34 35 27 32 39 42 48 54 50 51 52 36 33 34 33 30 29 28 28 28 26 25 24 22 20 17 18 18 17 15 14 12 11 11 11 9 11 11 12 11
34 41 20 29 48 35 29 33 37 39 41 45 44 47 53 43 23 25 24 27 27 26 27 26 26 25 22 21 17 16 15 14 13 13 11 9 8 8 9 10 10 14 13 14
26 39 23 20 38 51 27 34 32 41 27 36 39 35 40 25 29 29 24 23 22 26 28 29 24 21 19 17 17 15 13 11 11 10 8 6 5 6 8 10 10 12 13 15
32 38 34 25 34 46 19 36 35 40 35 30 31 29 37 30 26 26 28 26 21 21 22 23 20 18 16 14 13 11 10 10 9 7 5 4 3 5 7 7 9 11 12 13
27 30 29 19 27 33 15 41 33 34 41 34 32 27 20 12 21 23 22 17 19 19 13 8 11 12 11 10 10 10 10 10 8 6 4 2 2 4 5 7 9 11 12 14
20 26 27 33 37 30 33 45 21 31 29 38 37 25 20 11 9 6 11 14 14 16 12 10 8 9 10 12 12 12 11 10 10 8 6 4 5 6 7 8 11 12 14 15
22 22 26 26 29 30 36 45 48 48 38 33 37 22 17 12 15 17 14 14 14 13 13 12 11 11 13 15 15 14 13 11 9 8 8 6 6 7 8 10 12 14 15 16
25 27 31 33 32 26 37 41 47 48 47 31 33 24 19 13 14 13 13 14 12 10 12 14 16 15 16 16 15 14 12 10 11 9 7 6 6 7 9 12 14 15 17 19
24 30 33 38 39 37 39 41 46 45 42 40 35 30 19 13 8 7 8 13 12 10 14 15 16 16 14 13 13 12 11 9 8 7 5 5 7 9 11 14 16 18 21 23
25 27 30 34 35 37 37 38 44 43 39 40 37 28 27 21 5 6 8 12 12 13 14 14 13 13 12 12 11 10 9 7 5 4 4 6 8 11 13 16 19 21 24 26
29 25 22 24 27 33 36 42 40 39 38 40 38 21 12 7 6 8 9 12 13 13 13 12 11 11 10 10 9 8 7 4 3 3 5 7 10 13 16 19 22 25 28 29
29 26 22 20 22 17 12 37 37 37 37 36 35 6 6 7 7 7 8 10 12 13 12 11 10 10 9 8 6 6 4 2 1 4 7 10 13 17 20 23 26 28 29 30
29 25 20 17 17 15 5 12 23 33 33 29 20 11 2 7 8 5 6 8 8 11 11 11 9 8 7 6 5 4 3 1 4 7 11 15 17 21 24 27 28 28 28 27
25 26 22 16 18 20 17 16 18 19 27 30 9 15 8 11 9 11 7 7 8 9 9 10 9 7 6 5 3 3 3 4 8 12 16 18 20 23 25 26 26 26 24 23
20 21 25 24 21 19 17 20 20 12 23 14 4 24 18 12 12 10 7 5 6 11 11 10 8 6 3 5 4 6 6 10 12 16 19 20 22 24 23 24 23 23 22 21
21 21 22 23 23 23 18 18 21 15 19 21 9 22 9 10 13 11 7 10 9 13 11 9 7 4 2 5 5 7 9 14 17 19 20 21 22 23 22 22 21 20 20 19
19 20 20 19 18 19 18 18 15 13 12 8 5 12 12 12 12 11 7 10 8 17 7 7 6 4 3 4 5 8 10 13 17 19 21 21 21 21 20 19 19 18 19 20
13 15 15 15 13 13 13 10 7 5 4 6 1 12 7 8 7 7 10 17 19 14 8 8 7 9 10 5 8 12 14 17 18 20 20 20 19 18 18 18 18 19 19 19
11 12 5 2 9 4 3 2 4 5 6 7 5 6 6 7 5 9 10 10 8 6 6 12 9 7 7 9 11 15 17 18 19 19 19 18 16 16 16 17 18 17 18 19
6 11 10 6 11 7 8 9 9 10 9 10 10 7 4 8 10 8 9 6 5 7 2 3 4 7 10 13 15 17 18 19 19 17 17 16 15 16 14 14 15 16 17 19
Wind_Direction
279 271 265 266 261 264 263 262 261 262 262 262 254 256 259 260 259 257 255 254 256 251 250 247 245 246 243 242 239 244 238 239 241 247 252 260 264 271 273 278 284 287 291 291
277 270 275 272 268 264 261 260 257 264 267 259 256 257 259 257 253 254 256 256 255 253 250 248 240 241 241 238 242 244 243 243 242 250 258 265 271 274 275 281 286 288 288 291
275 277 280 272 269 264 260 258 257 257 262 260 260 258 257 256 259 257 256 254 255 255 249 245 246 241 239 244 243 243 244 245 245 255 259 271 278 285 283 288 284 288 289 287
280 280 275 273 270 266 260 260 258 258 255 254 251 256 257 256 256 255 256 255 252 251 250 248 240 242 239 242 242 242 243 242 246 252 257 261 270 277 282 284 286 287 282 282
280 278 277 272 268 268 263 263 259 256 255 256 254 257 258 259 255 253 253 252 252 251 248 245 245 241 241 240 243 244 243 240 243 246 257 260 273 284 288 293 288 287 286 287
273 279 277 277 274 268 264 261 258 256 253 250 250 252 253 257 256 256 257 249 250 249 249 245 243 245 240 235 238 240 237 238 242 243 253 261 269 285 293 295 295 289 292 291
284 280 278 276 269 266 248 251 250 249 246 250 249 250 250 264 260 257 253 253 251 247 248 246 241 238 239 237 237 232 232 232 232 234 246 255 261 283 293 297 301 300 298 299
283 249 274 275 251 257 238 241 244 246 250 252 250 250 249 252 269 270 267 254 252 253 246 245 242 238 233 231 231 225 220 221 228 226 238 245 263 281 298 305 307 309 317 318
290 238 268 215 227 218 244 241 241 249 266 262 251 250 254 258 254 254 260 255 256 257 258 252 244 230 230 227 223 214 209 221 214 217 229 241 254 291 309 316 324 324 325 324
271 260 245 259 248 228 229 192 240 243 251 254 250 245 247 246 253 254 247 251 258 264 257 246 236 228 221 209 200 198 199 198 194 198 208 231 281 316 330 339 338 339 341 341
277 272 257 269 205 187 227 228 244 247 245 253 255 253 280 252 252 242 253 246 253 252 257 246 200 193 192 189 186 179 171 168 168 166 163 141 35 19 21 12 7 360 357 351
294 275 265 253 247 260 194 231 234 244 247 245 250 264 280 274 270 262 254 254 250 246 236 221 206 193 188 180 170 162 155 151 141 133 116 87 61 52 35 16 7 358 353 352
286 263 255 253 244 249 235 226 222 217 235 241 245 258 277 280 272 268 257 253 246 239 223 210 196 179 168 161 154 148 143 138 127 117 105 87 65 45 24 12 360 356 353 351
271 255 236 233 238 250 232 225 217 215 218 244 245 254 253 281 267 263 253 232 224 205 185 171 165 159 151 148 144 141 135 128 118 109 98 76 45 25 13 1 355 351 346 341
265 243 241 250 248 242 224 215 198 210 219 224 232 251 258 290 264 237 214 215 187 185 165 158 152 149 145 141 139 136 133 127 116 103 80 45 28 10 1 355 349 340 335 331
258 243 259 253 241 218 212 211 195 201 212 216 221 238 275 258 240 193 185 193 175 171 170 160 154 147 144 143 141 135 131 122 111 89 51 26 10 355 347 343 337 333 327 331
245 244 254 238 228 210 210 193 179 187 195 199 213 247 119 112 123 181 175 184 178 177 171 159 151 150 150 149 146 142 136 131 98 42 10 355 346 334 333 331 334 328 325 328
222 229 241 238 189 209 236 183 190 187 193 194 218 279 68 82 113 151 174 171 182 180 174 173 172 157 153 147 145 141 151 140 23 345 342 336 331 325 325 324 324 326 329 330
202 224 230 231 225 227 254 245 232 222 188 179 249 256 270 109 121 147 174 191 186 186 183 171 174 163 161 159 165 157 142 274 333 325 326 321 326 314 315 318 323 329 332 338
191 196 227 236 227 226 242 262 264 259 182 173 224 240 201 137 203 212 187 184 200 197 180 177 167 182 183 222 171 201 244 310 317 324 298 312 301 310 317 323 329 335 342 350
222 216 221 226 232 246 260 259 260 218 231 244 153 135 139 208 223 156 142 132 163 182 175 169 155 177 186 234 255 239 278 287 313 303 307 311 315 318 325 330 337 341 348 353
224 224 223 226 226 221 279 254 234 249 241 239 121 144 154 121 124 134 129 98 140 168 169 151 160 104 209 249 273 280 307 295 294 301 300 307 315 322 332 338 343 354 353 356
232 235 228 238 253 255 253 245 271 269 256 263 166 129 126 126 126 110 108 103 124 188 145 177 153 172 41 301 296 284 299 297 298 296 306 314 319 330 348 349 354 359 355 349
251 240 231 234 270 279 266 262 299 342 19 73 105 192 171 148 141 109 125 108 102 109 136 123 100 78 62 322 290 285 288 299 303 303 309 316 333 346 360 358 358 355 355 358
236 207 211 342 214 247 231 201 28 38 34 56 79 174 174 144 144 122 132 135 175 143 123 91 76 50 10 323 314 292 292 300 300 305 321 334 355 1 4 360 352 5 359 351
253 211 217 193 51 99 80 62 50 49 55 60 76 89 95 107 116 128 127 148 175 193 194 42 352 347 326 299 293 294 301 300 304 324 339 349 4 359 9 19 17 10 9 15